Flag for Sudan Weather past 2 weeks in Khartoum, Sudan

Now
84 °F

Clear.


Feels Like: 81 °F
Forecast: 75 / 110 °F
Wind: 7 mph from North

Location: Khartoum Airport

Current Time: Mar 28, 2015 at 5:20:07 AM

Latest Report: Mar 28, 2015 at 5:00 AM


Visibility: 10 mi

Pressure: 29.71 "Hg

Humidity: 16%

Dew point: 34 °F

Location of KhartoumLocation

Historic Weather in Khartoum — Graph

°F

Khartoum temperature yesterday

Maximum temperature yesterday: 104 °F (at 2:00 PM)
Minimum temperature yesterday: 81 °F (at 6:00 AM)
Average temperature yesterday: 92 °F

Past Weeks' High & Low Weather Summary

 TemperatureHumidityPressure
High104 °F (Mar 27, 2:00 PM)33% (Mar 17, 6:00 AM)32.52 "Hg (Mar 17, 6:00 AM)
Low70 °F (Mar 20, 7:00 AM)4% (Mar 19, 5:00 PM)29.68 "Hg (Mar 27, 4:00 PM)
Average87 °F12%29.84 "Hg
* Reported Mar 13 3:30 AM — Mar 28 3:30 AM, Khartoum, Weather by CustomWeather, © 2015

Note: Actual official high and low records may vary slightly from our data, if they occured in-between our weather recording intervals... More about our weather records

Advertising

Khartoum weather history for previous 24 hours

 ConditionsComfort  
Time TempWeatherWind HumidityBarometerVisibility
3:30 AM
Sat, Mar 28
N/AClear.10 mphN/A29.71 "Hg10 mi
3:00 AM84 °FClear.10 mph16%29.74 "Hg10 mi
2:30 AMN/AClear.8 mphN/A29.74 "Hg10 mi
2:00 AM86 °FClear.5 mph13%29.74 "Hg10 mi
1:30 AMN/AClear.7 mphN/A29.74 "Hg10 mi
1:00 AM88 °FClear.6 mph15%29.74 "Hg10 mi
12:30 AMN/AClear.5 mphN/A29.74 "Hg10 mi
12:00 AM90 °FClear.6 mph17%29.74 "Hg10 mi
11:30 PM
Fri, Mar 27
N/AClear.5 mphN/A29.74 "Hg10 mi
11:00 PM91 °FClear.2 mph18%29.74 "Hg10 mi
10:30 PMN/AClear.2 mphN/A29.74 "Hg10 mi
9:30 PMN/AClear.3 mphN/A29.74 "Hg10 mi
9:00 PM95 °FClear.7 mph13%29.74 "Hg10 mi
8:30 PMN/AClear.7 mphN/A29.71 "Hg10 mi
8:00 PM95 °FClear.6 mph11%29.71 "Hg10 mi
7:30 PMN/AClear.6 mphN/A29.68 "Hg10 mi
7:00 PM100 °FSunny.No wind9%29.68 "Hg10 mi
6:30 PMN/ASunny.No windN/A29.68 "Hg10 mi
6:00 PMN/ASunny.No windN/AN/A10 mi
5:30 PMN/ASunny.No windN/A29.68 "Hg10 mi
5:00 PM104 °FExtremely hot.8 mph11%29.68 "HgN/A
4:30 PMN/ASunny.6 mphN/A29.68 "Hg10 mi
4:00 PM104 °FExtremely hot.8 mph9%29.68 "HgN/A
3:30 PMN/ASunny.6 mphN/A29.71 "Hg10 mi
3:00 PM104 °FSunny.2 mph8%29.71 "Hg10 mi
2:30 PMN/ASunny.3 mphN/A29.71 "Hg10 mi
2:00 PM104 °FSunny.8 mph9%29.74 "Hg10 mi
1:30 PMN/ASunny.6 mphN/A29.74 "Hg10 mi
1:00 PM102 °FSunny.7 mph9%29.77 "Hg10 mi
12:30 PMN/ASunny.13 mphN/A29.77 "Hg10 mi
12:00 PM99 °FSunny.12 mph12%29.80 "Hg10 mi
11:30 AMN/ASunny.13 mphN/A29.80 "Hg10 mi
11:00 AM97 °FSunny.16 mph12%29.83 "Hg10 mi
10:30 AMN/ASunny.12 mphN/A29.83 "Hg10 mi
10:00 AM91 °FSunny.7 mph14%29.83 "Hg10 mi
9:30 AMN/ASunny.9 mphN/A29.83 "Hg10 mi
9:00 AM84 °FSunny.10 mph16%29.83 "Hg10 mi
8:30 AMN/ASunny.10 mphN/A29.83 "Hg10 mi
8:00 AM82 °FSunny.10 mph14%29.80 "Hg10 mi
7:30 AMN/ASunny.9 mphN/A29.80 "Hg10 mi
7:00 AM81 °FSunny.8 mph17%29.80 "Hg10 mi
6:00 AM81 °FClear.9 mph20%29.80 "Hg10 mi
5:30 AMN/AClear.9 mphN/A29.77 "Hg10 mi
5:00 AM82 °FClear.8 mph19%29.77 "Hg10 mi
Weather by CustomWeather, © 2015

See weather overviewHow to use our weather pages